Weather History for Stevens Point, WI

Change the Weather History Date:

Friday, January 25, 2013

  Actual Average Record
Temperature  
Mean Temperature 12 °F -  
Max Temperature 17 °F 25 °F 50 °F (2002)
Min Temperature 7 °F 7 °F -21 °F (1991)
Degree Days  
Heating Degree Days 53    
Moisture  
Dew Point 8 °F    
Average Humidity 81    
Maximum Humidity 88    
Minimum Humidity 66    
Precipitation  
Precipitation 0.00 in - - ()
Sea Level Pressure  
Sea Level Pressure 30.03 in    
Wind  
Wind Speed 7 mph (WSW)    
Max Wind Speed 10 mph    
Max Gust Speed 17 mph    
Visibility 6 miles    
Events Snow    
Averages and records for this station are not official NWS values.
T = Trace of Precipitation, MM = Missing Value Source: NWS Daily Summary

Daily Weather History Graph

Daily Weather History Graph

Search for Another Location

Airport:

Trip Planner

Search our weather history database for the weather conditions in past years. The results will help you decide how hot, cold, wet, or windy it might be!

Date:

Astronomy

Jan. 25, 2013 Rise Set
Actual Time 7:23 AM CST 4:57 PM CST
Civil Twilight 6:52 AM CST 5:29 PM CST
Nautical Twilight 6:16 AM CST 6:04 PM CST
Astronomical Twilight 5:42 AM CST 6:39 PM CST
Moon 3:55 PM CST 6:03 AM CST
Length of Visible Light 10h 37m
Length of Day
9h 34m
Waxing Gibbous, 98% of the Moon is Illuminated
Jan 25
Waxing Gibbous
Jan 26
Full
Feb 3
Last Quarter
Feb 10
New
Feb 17
First Quarter

Hourly Weather History & Observations

Time (CST) Temp. Windchill Dew Point Humidity Pressure Visibility Wind Dir Wind Speed Gust Speed Precip Events Conditions
12:15 AM 7.2 °F 0.3 °F 2.7 °F 82% 30.28 in 10.0 mi ESE 3.5 mph - N/A   Overcast
12:35 AM 7.3 °F 0.5 °F 3.0 °F 82% 30.27 in 10.0 mi ESE 3.5 mph - N/A   Overcast
12:55 AM 7.5 °F -3.9 °F 3.4 °F 83% 30.25 in 10.0 mi SE 6.9 mph - N/A   Overcast
1:15 AM 7.7 °F -2.4 °F 3.6 °F 83% 30.23 in 10.0 mi SE 5.8 mph - N/A   Overcast
1:35 AM 8.2 °F -0.3 °F 3.9 °F 83% 30.21 in 10.0 mi SSE 4.6 mph - N/A   Overcast
1:55 AM 9.0 °F -2.2 °F 4.5 °F 82% 30.20 in 4.0 mi SSE 6.9 mph - N/A Snow Light Snow
2:15 AM 9.1 °F -3.0 °F 5.7 °F 86% 30.18 in 1.5 mi SSE 8.1 mph - N/A Snow Light Snow
2:35 AM 9.5 °F -1.5 °F 6.4 °F 87% 30.16 in 2.0 mi SSE 6.9 mph - N/A Snow Light Snow
2:55 AM 10.4 °F 0.8 °F 7.0 °F 86% 30.14 in 2.5 mi SSE 5.8 mph - N/A Snow Light Snow
3:15 AM 10.9 °F -0.8 °F 7.7 °F 87% 30.13 in 1.5 mi SSE 8.1 mph - N/A Snow Light Snow
3:35 AM 11.1 °F -0.6 °F 7.7 °F 86% 30.12 in 1.8 mi South 8.1 mph - N/A   Overcast
3:55 AM 11.3 °F -0.4 °F 7.9 °F 86% 30.11 in 2.0 mi SSE 8.1 mph - N/A   Overcast
4:15 AM 11.3 °F 1.9 °F 8.1 °F 87% 30.09 in 1.8 mi SSE 5.8 mph - N/A   Overcast
4:35 AM 11.3 °F 0.7 °F 8.2 °F 87% 30.08 in 1.5 mi South 6.9 mph - N/A   Overcast
4:55 AM 11.3 °F -0.4 °F 8.1 °F 87% 30.05 in 2.5 mi SSE 8.1 mph - N/A   Overcast
5:15 AM 11.3 °F -0.4 °F 8.2 °F 87% 30.05 in 3.0 mi South 8.1 mph - N/A   Overcast
5:35 AM 11.7 °F 1.1 °F 8.2 °F 86% 30.04 in 7.0 mi South 6.9 mph - N/A   Overcast
5:55 AM 11.7 °F -0.9 °F 8.2 °F 86% 30.02 in 10.0 mi South 9.2 mph - N/A Snow Light Snow
6:15 AM 11.8 °F -0.7 °F 8.4 °F 86% 30.01 in 7.0 mi South 9.2 mph - N/A Snow Light Snow
6:35 AM 12.0 °F -0.4 °F 8.6 °F 86% 30.01 in 10.0 mi South 9.2 mph - N/A Snow Light Snow
6:55 AM 12.0 °F -0.4 °F 8.6 °F 86% 30.00 in 10.0 mi South 9.2 mph - N/A Snow Light Snow
7:35 AM 12.2 °F 0.7 °F 9.1 °F 88% 29.98 in 4.0 mi South 8.1 mph - N/A Snow Light Snow
7:55 AM 12.6 °F 0.2 °F 9.3 °F 87% 29.97 in 3.0 mi South 9.2 mph - N/A Snow Light Snow
8:15 AM 12.7 °F 1.4 °F 9.5 °F 87% 29.96 in 1.5 mi SSW 8.1 mph - N/A Snow Light Snow
8:35 AM 12.7 °F 1.4 °F 9.7 °F 88% 29.96 in 1.5 mi South 8.1 mph - N/A Snow Light Snow
8:55 AM 13.1 °F 0.9 °F 10.0 °F 88% 29.95 in 1.8 mi SSW 9.2 mph - N/A Snow Light Snow
9:15 AM 13.5 °F 1.3 °F 10.2 °F 87% 29.95 in 1.8 mi SSW 9.2 mph - N/A Snow Light Snow
9:35 AM 13.6 °F 1.6 °F 10.4 °F 87% 29.94 in 2.0 mi SSW 9.2 mph - N/A Snow Light Snow
9:55 AM 14.0 °F 2.9 °F 10.4 °F 86% 29.93 in 2.0 mi SSW 8.1 mph - N/A Snow Light Snow
10:15 AM 14.4 °F 4.3 °F 10.8 °F 86% 29.93 in 2.0 mi SSW 6.9 mph - N/A Snow Light Snow
10:35 AM 14.7 °F 4.8 °F 11.1 °F 86% 29.92 in 1.8 mi SSW 6.9 mph - N/A Snow Light Snow
10:55 AM 14.9 °F 5.0 °F 11.3 °F 86% 29.91 in 1.8 mi SSW 6.9 mph - N/A Snow Light Snow
11:15 AM 15.4 °F 5.6 °F 11.7 °F 85% 29.90 in 1.5 mi SSW 6.9 mph - N/A Snow Light Snow
11:35 AM 15.8 °F 7.2 °F 11.8 °F 84% 29.90 in 1.2 mi SW 5.8 mph - N/A Snow Light Snow
11:55 AM 16.2 °F 5.5 °F 12.0 °F 84% 29.88 in 1.5 mi WSW 8.1 mph - N/A Snow Light Snow
12:15 PM 16.3 °F 7.8 °F 12.0 °F 83% 29.88 in 1.5 mi WSW 5.8 mph - N/A Snow Light Snow
12:35 PM 16.5 °F 8.1 °F 12.2 °F 83% 29.87 in 1.5 mi WSW 5.8 mph - N/A Snow Light Snow
12:55 PM 16.7 °F 6.2 °F 11.8 °F 81% 29.88 in 1.8 mi West 8.1 mph - N/A Snow Light Snow
1:35 PM 16.7 °F 6.2 °F 11.8 °F 81% 29.88 in 2.0 mi West 8.1 mph - N/A Snow Light Snow
1:55 PM 16.7 °F 8.3 °F 11.3 °F 79% 29.89 in 3.0 mi West 5.8 mph - N/A Snow Light Snow
2:15 PM 17.1 °F 5.8 °F 10.8 °F 76% 29.90 in 4.0 mi West 9.2 mph 16.1 mph N/A Snow Light Snow
2:35 PM 17.1 °F 5.8 °F 10.9 °F 77% 29.90 in 4.0 mi West 9.2 mph 17.3 mph N/A Snow Light Snow
2:55 PM 17.2 °F 6.8 °F 11.3 °F 78% 29.91 in 3.0 mi WNW 8.1 mph - N/A Snow Light Snow
3:15 PM 17.2 °F 7.8 °F 10.9 °F 76% 29.92 in 3.0 mi WNW 6.9 mph 16.1 mph N/A Snow Light Snow
3:35 PM 17.4 °F 5.4 °F 8.2 °F 67% 29.93 in 10.0 mi West 10.4 mph - N/A   Overcast
3:55 PM 17.4 °F 7.1 °F 7.9 °F 66% 29.94 in 10.0 mi WNW 8.1 mph - N/A   Overcast
4:15 PM 17.1 °F 6.6 °F 9.0 °F 71% 29.95 in 10.0 mi WNW 8.1 mph - N/A   Overcast
4:35 PM 16.7 °F 7.2 °F 10.0 °F 75% 29.96 in 10.0 mi WNW 6.9 mph - N/A   Overcast
4:55 PM 16.5 °F 6.0 °F 8.6 °F 71% 29.97 in 10.0 mi NW 8.1 mph - N/A   Overcast
5:15 PM 16.5 °F 6.0 °F 7.7 °F 68% 29.98 in 10.0 mi NW 8.1 mph - N/A   Overcast
5:35 PM 16.2 °F 6.5 °F 8.1 °F 70% 29.98 in 10.0 mi WNW 6.9 mph - N/A   Overcast
5:55 PM 15.6 °F 4.9 °F 8.2 °F 73% 30.00 in 10.0 mi NW 8.1 mph - N/A   Overcast
6:15 PM 15.6 °F 8.3 °F 8.6 °F 74% 30.01 in 10.0 mi WNW 4.6 mph - N/A   Overcast
6:35 PM 15.4 °F 4.6 °F 9.0 °F 76% 30.03 in 10.0 mi NW 8.1 mph - N/A   Overcast
6:55 PM 14.9 °F 6.1 °F 8.6 °F 76% 30.03 in 10.0 mi NW 5.8 mph - N/A   Overcast
7:15 PM 14.5 °F 7.1 °F 8.6 °F 77% 30.03 in 10.0 mi NW 4.6 mph - N/A   Overcast
7:35 PM 13.8 °F 6.2 °F 8.2 °F 78% 30.04 in 10.0 mi NW 4.6 mph - N/A   Mostly Cloudy
7:55 PM 13.1 °F 5.4 °F 8.1 °F 80% 30.05 in 10.0 mi WNW 4.6 mph - N/A   Clear
8:15 PM 12.2 °F 4.3 °F 7.7 °F 82% 30.07 in 10.0 mi WNW 4.6 mph - N/A   Clear
8:35 PM 12.0 °F 2.7 °F 6.8 °F 80% 30.08 in 10.0 mi NW 5.8 mph - N/A   Clear
8:55 PM 11.5 °F 3.5 °F 6.1 °F 79% 30.08 in 10.0 mi NW 4.6 mph - N/A   Clear
9:15 PM 11.1 °F 3.1 °F 5.5 °F 78% 30.09 in 10.0 mi NW 4.6 mph - N/A   Clear
9:35 PM 10.4 °F 2.2 °F 5.0 °F 79% 30.09 in 10.0 mi WNW 4.6 mph - N/A   Clear
9:55 PM 10.4 °F 2.2 °F 4.6 °F 78% 30.10 in 10.0 mi WNW 4.6 mph - N/A   Clear
10:15 PM 10.0 °F 0.4 °F 4.1 °F 77% 30.11 in 10.0 mi WNW 5.8 mph - N/A   Clear
10:35 PM 9.5 °F 1.2 °F 3.6 °F 77% 30.12 in 10.0 mi WNW 4.6 mph - N/A   Clear
10:55 PM 9.1 °F -0.7 °F 3.0 °F 76% 30.13 in 10.0 mi WNW 5.8 mph - N/A   Clear
11:15 PM 8.6 °F 2.0 °F 2.8 °F 77% 30.14 in 10.0 mi WNW 3.5 mph - N/A   Clear
11:35 PM 7.5 °F -1.1 °F 2.3 °F 79% 30.15 in 10.0 mi West 4.6 mph - N/A   Clear
11:55 PM 7.2 °F -4.3 °F 2.1 °F 80% 30.16 in 10.0 mi NW 6.9 mph - N/A   Clear